This is the latest recevied weather packets stored in our database for station/object KA7KDX-4. If no packets are shown the sender has not sent any weather packets the latest 10 day(s).
| Time | Temp. | Humidity | Pressure | Rain* | Wind** | Luminosity | Snow |
|---|---|---|---|---|---|---|---|
| 1777865406 | 16.11° C | 29% | 1004.8 hPa | 0 mm | - | - | - |
| 1777865105 | 16.11° C | 30% | 1004.8 hPa | 0 mm | - | - | - |
| 1777864805 | 16.67° C | 30% | 1004.7 hPa | 0 mm | - | - | - |
| 1777864505 | 16.67° C | 30% | 1004.5 hPa | 0 mm | - | - | - |
| 1777864205 | 16.67° C | 30% | 1004.4 hPa | 0 mm | - | - | - |
| 1777863906 | 17.22° C | 30% | 1004.4 hPa | 0 mm | - | - | - |
| 1777863606 | 17.22° C | 30% | 1004.2 hPa | 0 mm | - | - | - |
| 1777863306 | 17.78° C | 30% | 1004 hPa | 0 mm | - | - | - |
| 1777863006 | 18.33° C | 30% | 1003.7 hPa | 0 mm | - | - | - |
| 1777862706 | 18.89° C | 29% | 1003.5 hPa | 0 mm | - | - | - |
| 1777862405 | 18.89° C | 32% | 1003.4 hPa | 0 mm | - | - | - |
| 1777862105 | 18.89° C | 34% | 1003.3 hPa | 0 mm | - | - | - |
| 1777861805 | 19.44° C | 35% | 1003.1 hPa | 0 mm | - | - | - |
| 1777861505 | 19.44° C | 34% | 1003.1 hPa | 0 mm | - | - | - |
| 1777861205 | 19.44° C | 35% | 1003.1 hPa | 0 mm | - | - | - |
| 1777860906 | 20° C | 35% | 1003 hPa | 0 mm | - | - | - |
| 1777860606 | 20° C | 34% | 1002.9 hPa | 0 mm | - | - | - |
| 1777860306 | 20.56° C | 32% | 1002.7 hPa | 0 mm | - | - | - |
| 1777860006 | 21.11° C | 30% | 1002.4 hPa | 0 mm | - | - | - |
| 1777859705 | 21.11° C | 22% | 1002.2 hPa | 0 mm | - | - | - |
| 1777859405 | 21.67° C | 21% | 1002.1 hPa | 0 mm | - | - | - |
| 1777859105 | 21.67° C | 20% | 1002 hPa | 0 mm | - | - | - |
| 1777858805 | 21.67° C | 19% | 1002 hPa | 0 mm | - | - | - |
| 1777858505 | 21.67° C | 19% | 1002 hPa | 0 mm | - | - | - |
| 1777858206 | 22.22° C | 19% | 1001.9 hPa | 0 mm | - | - | - |
* Rain latest hour (hover to see other rain measurements)
** Current wind speed in m/s (hover to see current wind gust speed)